Weather History for KTKV - July, 2013

Change the Weather History Date:

Saturday, July 20, 2013

  Actual Average (KRHI) Record (KRHI)
Temperature  
Mean Temperature 64 °F 67 °F  
Max Temperature 73 °F 79 °F 95 °F (1932)
Min Temperature 57 °F 55 °F 40 °F (1913)
Degree Days  
Heating Degree Days 0 2  
Month to date heating degree days 40  
Since 1 June heating degree days 174  
Since 1 July heating degree days 40  
Cooling Degree Days 0 4  
Month to date cooling degree days 70  
Year to date cooling degree days 135  
Since 1 June cooling degree days 123  
Growing Degree Days 14 (Base 50)    
Moisture  
Dew Point 52 °F    
Average Humidity 71    
Maximum Humidity 92    
Minimum Humidity 40    
Precipitation  
Precipitation 0.00 in 0.14 in 2.45 in (2001)
Month to date precipitation 2.69  
Year to date precipitation 16.26  
Snow  
Snow 0.00 in - 0.00 in ()
Month to date snowfall  
Since 1 June snowfall  
Since 1 July snowfall  
Snow Depth -    
Sea Level Pressure  
Sea Level Pressure 29.93 in    
Wind  
Wind Speed 1 mph (North)    
Max Wind Speed 8 mph    
Max Gust Speed -    
Visibility 10 miles    
Events      
T = Trace of Precipitation, MM = Missing Value Source: NWS Daily Summary

Daily Weather History Graph

Daily Weather History Graph

Search for Another Location

Airport or City:

Trip Planner

Search our weather history database for the weather conditions in past years. The results will help you decide how hot, cold, wet, or windy it might be!

Date:

Astronomy

Jul. 20, 2013 Rise Set
Actual Time 5:30 AM CDT 8:40 PM CDT
Civil Twilight 4:54 AM CDT 9:15 PM CDT
Nautical Twilight 4:08 AM CDT 10:01 PM CDT
Astronomical Twilight 3:11 AM CDT 10:58 PM CDT
Moon 6:43 PM CDT (7/20) 3:10 AM CDT (7/20)
Length of Visible Light 16h 21m
Length of Day
15h 09m
Waxing Gibbous, 94% of the Moon is Illuminated
Jul 20
Waxing Gibbous
Jul 22
Full
Jul 29
Last Quarter
Aug 6
New
Aug 14
First Quarter

Hourly Weather History & Observations

Time (CDT) Temp. Dew Point Humidity Pressure Visibility Wind Dir Wind Speed Gust Speed Precip Events Conditions
12:15 AM 57.2 °F 55.0 °F 92% 29.86 in 10.0 mi Calm Calm - N/A   Clear
12:35 AM 60.4 °F 56.1 °F 86% 29.86 in 10.0 mi Calm Calm - N/A   Clear
12:55 AM 57.9 °F 54.1 °F 87% 29.86 in 10.0 mi Calm Calm - N/A   Clear
1:15 AM 60.8 °F 56.3 °F 85% 29.86 in 10.0 mi Calm Calm - N/A   Clear
1:35 AM 59.7 °F 55.4 °F 86% 29.86 in 10.0 mi Calm Calm - N/A   Scattered Clouds
1:55 AM 58.3 °F 54.9 °F 88% 29.86 in 10.0 mi Calm Calm - N/A   Scattered Clouds
2:15 AM 58.1 °F 55.0 °F 90% 29.86 in 10.0 mi Calm Calm - N/A   Scattered Clouds
2:35 AM 58.5 °F 55.4 °F 90% 29.86 in 10.0 mi West 3.5 mph - N/A   Scattered Clouds
2:55 AM 58.3 °F 55.4 °F 90% 29.86 in 10.0 mi Calm Calm - N/A   Scattered Clouds
3:15 AM 58.3 °F 55.4 °F 90% 29.86 in 10.0 mi West 3.5 mph - N/A   Mostly Cloudy
3:35 AM 59.0 °F 56.3 °F 91% 29.86 in 10.0 mi Calm Calm - N/A   Overcast
3:55 AM 59.0 °F 56.3 °F 91% 29.86 in 10.0 mi Calm Calm - N/A   Overcast
4:15 AM 59.0 °F 55.9 °F 90% 29.86 in 10.0 mi West 3.5 mph - N/A   Mostly Cloudy
4:35 AM 59.0 °F 55.9 °F 90% 29.86 in 10.0 mi Calm Calm - N/A   Mostly Cloudy
4:55 AM 59.0 °F 55.9 °F 90% 29.87 in 10.0 mi Calm Calm - N/A   Scattered Clouds
5:15 AM 58.5 °F 55.2 °F 89% 29.88 in 10.0 mi WNW 3.5 mph - N/A   Clear
5:35 AM 59.0 °F 55.4 °F 88% 29.89 in 10.0 mi Calm Calm - N/A   Clear
5:55 AM 58.3 °F 54.7 °F 88% 29.90 in 10.0 mi NW 3.5 mph - N/A   Clear
6:15 AM 58.3 °F 55.0 °F 89% 29.90 in 10.0 mi Calm Calm - N/A   Clear
6:35 AM 59.5 °F 55.4 °F 86% 29.90 in 10.0 mi Calm Calm - N/A   Clear
6:55 AM 60.1 °F 55.4 °F 85% 29.91 in 10.0 mi Calm Calm - N/A   Scattered Clouds
7:15 AM 61.0 °F 55.6 °F 82% 29.91 in 10.0 mi Calm Calm - N/A   Scattered Clouds
7:35 AM 62.2 °F 55.9 °F 80% 29.92 in 10.0 mi Calm Calm - N/A   Scattered Clouds
7:55 AM 63.1 °F 55.8 °F 77% 29.92 in 10.0 mi NE 3.5 mph - N/A   Clear
8:15 AM 63.7 °F 55.2 °F 74% 29.93 in 10.0 mi Calm Calm - N/A   Clear
8:35 AM 64.8 °F 55.4 °F 72% 29.93 in 10.0 mi NE 3.5 mph - N/A   Scattered Clouds
8:55 AM 65.3 °F 55.2 °F 70% 29.94 in 10.0 mi ENE 4.6 mph - N/A   Mostly Cloudy
9:35 AM 64.4 °F 55.6 °F 73% 29.96 in 10.0 mi North 3.5 mph - N/A   Overcast
9:55 AM 64.8 °F 54.9 °F 70% 29.96 in 10.0 mi NNE 3.5 mph - N/A   Overcast
10:15 AM 65.5 °F 54.7 °F 68% 29.96 in 10.0 mi NE 4.6 mph - N/A   Overcast
10:35 AM 65.7 °F 53.1 °F 64% 29.97 in 10.0 mi NNE 4.6 mph - N/A   Overcast
11:15 AM 64.8 °F 53.1 °F 66% 29.98 in 10.0 mi Calm Calm - N/A   Overcast
11:55 AM 65.5 °F 51.8 °F 61% 29.97 in 10.0 mi Calm Calm - N/A   Overcast
1:55 PM 70.5 °F 50.4 °F 49% 29.97 in 10.0 mi NNE 4.6 mph - N/A   Mostly Cloudy
2:15 PM 70.5 °F 49.5 °F 47% 29.97 in 10.0 mi NNW 3.5 mph - N/A   Scattered Clouds
2:35 PM 70.0 °F 49.8 °F 49% 29.97 in 10.0 mi Calm Calm - N/A   Scattered Clouds
3:35 PM 69.3 °F 51.3 °F 53% 29.97 in 10.0 mi Calm Calm - N/A   Overcast
3:55 PM 72.0 °F 47.3 °F 41% 29.97 in 10.0 mi NW 8.1 mph - N/A   Mostly Cloudy
4:35 PM 71.6 °F 47.5 °F 42% 29.96 in 10.0 mi North 3.5 mph - N/A   Clear
4:55 PM 71.8 °F 47.1 °F 41% 29.95 in 10.0 mi North 4.6 mph - N/A   Clear
5:15 PM 71.2 °F 46.0 °F 40% 29.95 in 10.0 mi NNE 3.5 mph - N/A   Clear
5:55 PM 71.1 °F 46.0 °F 41% 29.95 in 10.0 mi Calm Calm - N/A   Clear
6:15 PM 70.9 °F 47.1 °F 43% 29.95 in 10.0 mi NNW 4.6 mph - N/A   Clear
6:35 PM 70.7 °F 46.8 °F 42% 29.95 in 10.0 mi Calm Calm - N/A   Clear
6:55 PM 69.6 °F 48.0 °F 46% 29.95 in 10.0 mi NE 3.5 mph - N/A   Clear
7:15 PM 68.9 °F 49.6 °F 50% 29.95 in 10.0 mi Calm Calm - N/A   Clear
8:15 PM 64.2 °F 50.5 °F 61% 29.97 in 10.0 mi Calm Calm - N/A   Clear
8:55 PM 61.5 °F 49.5 °F 65% 29.98 in 10.0 mi North 3.5 mph - N/A   Clear
9:35 PM 58.5 °F 49.1 °F 71% 30.01 in 10.0 mi Calm Calm - N/A   Clear
9:55 PM 57.4 °F 49.5 °F 75% 30.02 in 10.0 mi Calm Calm - N/A   Mostly Cloudy
10:15 PM 57.4 °F 50.2 °F 77% 30.02 in 10.0 mi Calm Calm - N/A   Overcast
10:35 PM 59.2 °F 49.3 °F 70% 30.02 in 10.0 mi NE 4.6 mph - N/A   Overcast
10:55 PM 59.4 °F 48.0 °F 66% 30.02 in 10.0 mi NE 5.8 mph - N/A   Overcast
11:15 PM 59.0 °F 47.3 °F 65% 30.02 in 10.0 mi NE 4.6 mph - N/A   Overcast
11:35 PM 58.6 °F 46.6 °F 64% 30.03 in 10.0 mi NE 5.8 mph - N/A   Overcast
11:55 PM 58.3 °F 46.6 °F 65% 30.03 in 10.0 mi NE 4.6 mph - N/A   Overcast